Location: Ostrava
(49.8330°N, 18.2830°E)
Time: 03:32:14
(UTC+01:00)

Cosmos 2219 Rocket - Visible Passes

Search period start: 01 November 2014 00:00
Search period end: 11 November 2014 00:00
Orbit: 827 x 849 km, 71.0° (Epoch: 31 October)

Date Brightness Start Highest point End Pass type
(mag) Time Alt. Az. Time Alt. Az. Time Alt. Az.
01 Nov 2.5 17:18:07 10° SW 17:23:44 70° WNW 17:29:25 10° NNE visible
01 Nov 4.5 19:04:51 10° W 19:08:47 19° NW 19:12:45 10° N visible
02 Nov 2.5 17:01:49 10° SW 17:07:28 74° WNW 17:13:10 10° NNE visible
02 Nov 4.4 18:48:24 10° W 18:52:27 20° NW 18:56:31 10° N visible
03 Nov 4.4 18:31:57 10° W 18:36:07 21° NW 18:40:18 10° N visible
04 Nov 4.3 18:15:31 10° W 18:19:47 21° NW 18:24:04 10° N visible
05 Nov 4.3 17:59:05 10° W 18:03:27 22° NW 18:07:51 10° NNE visible
06 Nov 4.2 17:42:39 10° W 17:47:07 23° NW 17:51:37 10° NNE visible
07 Nov 4.1 17:26:13 10° W 17:30:47 24° NW 17:35:23 10° NNE visible
08 Nov 4.0 17:09:49 10° W 17:14:28 26° NW 17:19:09 10° NNE visible
09 Nov 4.0 16:53:24 10° W 16:58:08 27° NW 17:02:55 10° NNE visible
09 Nov 4.8 18:43:58 10° NNW 18:44:17 10° NNW 18:44:36 10° NNW visible
10 Nov 4.7 18:27:00 10° NNW 18:27:54 10° NNW 18:28:48 10° N visible
